K9BM Weather Reports


Display with metric or nautical units.
time (UTC)temp
F
wind
direction
speed
MPH
gust
MPH
rain 1hr
in
rain 24hr
in
rain mn
in
humidity
%
barometer
mb
20260509203005 60 296 12.0 24.0 0.00 0.00 0.00 35 1012.7
20260509202505 61 283 13.0 21.0 0.00 0.00 0.00 34 1012.7
20260509201505 60 299 12.0 18.0 0.00 0.00 0.00 35 1012.6
20260509201005 60 291 10.0 18.0 0.00 0.00 0.00 33 1012.7
20260509200005 61 304 12.0 17.0 0.00 0.00 0.00 35 1012.5
20260509195505 60 305 12.0 17.0 0.00 0.00 0.00 36 1012.5
20260509195005 60 314 12.0 20.0 0.00 0.00 0.00 35 1012.5
20260509194505 59 311 9.0 22.0 0.00 0.00 0.00 37 1012.5
20260509194005 59 320 11.0 22.0 0.00 0.00 0.00 37 1012.6
20260509193505 59 315 13.0 20.0 0.00 0.00 0.00 36 1012.5
20260509193005 59 312 12.0 18.0 0.00 0.00 0.00 36 1012.4
20260509192505 59 305 13.0 18.0 0.00 0.00 0.00 36 1012.4
20260509192005 59 310 15.0 18.0 0.00 0.00 0.00 36 1012.3
20260509191505 59 290 11.0 22.0 0.00 0.00 0.00 36 1012.3
20260509190006 60 285 15.0 21.0 0.00 0.00 0.00 34 1012.2
20260509185505 60 309 11.0 20.0 0.00 0.00 0.00 33 1012.1
20260509185005 61 281 14.0 21.0 0.00 0.00 0.00 34 1012.1
20260509184505 60 275 16.0 24.0 0.00 0.00 0.00 31 1012.0
20260509183505 60 286 20.0 24.0 0.00 0.00 0.00 31 1012.0
20260509183006 61 281 16.0 24.0 0.00 0.00 0.00 33 1011.9
20260509182504 60 285 13.0 25.0 0.00 0.00 0.00 34 1011.9
20260509182005 60 277 18.0 26.0 0.00 0.00 0.00 34 1011.9
20260509181505 60 278 14.0 26.0 0.00 0.00 0.00 35 1011.9
20260509181006 60 298 13.0 26.0 0.00 0.00 0.00 33 1011.9
20260509175505 59 286 11.0 26.0 0.00 0.00 0.00 33 1011.9
20260509175005 60 275 17.0 26.0 0.00 0.00 0.00 32 1012.1
20260509174505 59 292 12.0 24.0 0.00 0.00 0.00 35 1012.0
20260509174005 59 287 16.0 24.0 0.00 0.00 0.00 33 1012.0
20260509173505 59 289 16.0 20.0 0.00 0.00 0.00 34 1012.0
20260509173005 59 265 12.0 20.0 0.00 0.00 0.00 33 1012.0
20260509172005 58 310 12.0 20.0 0.00 0.00 0.00 36 1011.9
20260509171505 58 295 14.0 20.0 0.00 0.00 0.00 36 1012.0
20260509171005 58 285 13.0 20.0 0.00 0.00 0.00 35 1012.0
20260509170005 57 282 12.0 20.0 0.00 0.00 0.00 36 1012.0
20260509165505 58 287 13.0 20.0 0.00 0.00 0.00 35 1012.1
20260509164505 57 272 11.0 21.0 0.00 0.00 0.00 36 1012.0
20260509164005 57 270 13.0 21.0 0.00 0.00 0.00 35 1012.1
20260509163505 57 282 13.0 22.0 0.00 0.00 0.00 36 1012.1
20260509163005 57 277 13.0 22.0 0.00 0.00 0.00 37 1012.1
20260509162505 57 257 14.0 22.0 0.00 0.00 0.00 36 1011.9
20260509161505 56 292 12.0 20.0 0.00 0.00 0.00 38 1012.0
20260509161005 56 286 13.0 24.0 0.00 0.00 0.00 37 1012.0
20260509160005 56 274 16.0 24.0 0.00 0.00 0.00 37 1011.9
20260509155005 55 279 15.0 24.0 0.00 0.00 0.00 38 1011.8
20260509154504 55 291 15.0 24.0 0.00 0.00 0.00 37 1011.7
20260509154005 55 293 17.0 26.0 0.00 0.00 0.00 38 1011.7
20260509153005 55 287 20.0 30.0 0.00 0.00 0.00 38 1011.8
20260509152504 55 279 20.0 30.0 0.00 0.00 0.00 39 1011.7
20260509152005 54 263 20.0 26.0 0.00 0.00 0.00 39 1011.6
20260509151504 54 273 20.0 26.0 0.00 0.00 0.00 39 1011.5
20260509151005 54 269 17.0 28.0 0.00 0.00 0.00 39 1011.6
20260509150004 53 260 20.0 30.0 0.00 0.00 0.00 38 1011.4
20260509145505 53 255 21.0 30.0 0.00 0.00 0.00 38 1011.4
20260509144505 53 258 18.0 26.0 0.00 0.00 0.00 39 1011.3
20260509144005 53 252 14.0 25.0 0.00 0.00 0.00 39 1011.4
20260509143504 53 272 16.0 23.0 0.00 0.00 0.00 38 1011.5
20260509143005 53 269 16.0 20.0 0.00 0.00 0.00 38 1011.5
20260509142504 52 276 13.0 22.0 0.00 0.00 0.00 39 1011.4
20260509142005 52 272 14.0 22.0 0.00 0.00 0.00 38 1011.4
20260509141504 52 257 14.0 20.0 0.00 0.00 0.00 39 1011.3
20260509141005 52 263 13.0 20.0 0.00 0.00 0.00 39 1011.2
20260509140006 51 265 16.0 20.0 0.00 0.00 0.00 40 1011.2
20260509135005 51 263 13.0 25.0 0.00 0.00 0.00 39 1011.1
20260509134504 51 277 14.0 26.0 0.00 0.00 0.00 38 1011.1
20260509134004 51 264 18.0 26.0 0.00 0.00 0.00 38 1010.9
20260509133505 51 255 15.0 24.0 0.00 0.00 0.00 38 1010.9
20260509133005 51 251 17.0 24.0 0.00 0.00 0.00 37 1010.7
20260509132505 51 262 17.0 25.0 0.00 0.00 0.00 38 1010.7
20260509132005 50 256 15.0 25.0 0.00 0.00 0.00 38 1010.7
20260509131504 50 251 17.0 25.0 0.00 0.00 0.00 37 1010.6
20260509131005 50 252 14.0 22.0 0.00 0.00 0.00 39 1010.6
20260509130005 49 247 12.0 18.0 0.00 0.00 0.00 39 1010.7
20260509125505 49 246 13.0 18.0 0.00 0.00 0.00 40 1010.7
20260509125005 48 255 12.0 18.0 0.00 0.00 0.00 40 1010.7
20260509124505 48 250 12.0 16.0 0.00 0.00 0.00 41 1010.7
20260509124005 48 250 12.0 15.0 0.00 0.00 0.00 41 1010.7
20260509123504 48 251 10.0 15.0 0.00 0.00 0.00 42 1010.6
20260509122504 48 245 10.0 16.0 0.00 0.00 0.00 42 1010.5
20260509121504 48 246 13.0 18.0 0.00 0.00 0.00 41 1010.2
20260509121005 48 254 13.0 21.0 0.00 0.00 0.00 40 1010.2
20260509120005 49 250 13.0 18.0 0.00 0.00 0.00 40 1010.0
20260509115504 49 253 12.0 18.0 0.00 0.00 0.00 41 1010.0
20260509115005 49 240 10.0 18.0 0.00 0.00 0.00 40 1010.0
20260509114505 49 250 13.0 18.0 0.00 0.00 0.00 40 1009.9
20260509114005 49 238 10.0 18.0 0.00 0.00 0.00 40 1009.8
20260509113505 50 249 13.0 20.0 0.00 0.00 0.00 40 1009.8
20260509113005 50 262 12.0 20.0 0.00 0.00 0.00 39 1009.8
20260509112005 50 266 15.0 20.0 0.00 0.00 0.00 39 1009.7
20260509111504 50 254 15.0 20.0 0.00 0.00 0.00 40 1009.7
20260509111005 50 249 16.0 20.0 0.00 0.00 0.00 41 1009.6
20260509105505 50 257 13.0 16.0 0.00 0.00 0.00 41 1009.4
20260509105004 51 257 9.0 16.0 0.00 0.00 0.00 40 1009.3
20260509104504 51 273 13.0 16.0 0.00 0.00 0.00 40 1009.3
20260509104005 51 271 10.0 14.0 0.00 0.00 0.00 40 1009.3
20260509103504 52 302 8.0 14.0 0.00 0.00 0.00 38 1009.2
20260509103004 52 281 9.0 18.0 0.00 0.00 0.00 37 1009.2
20260509102505 52 291 10.0 18.0 0.00 0.00 0.00 38 1009.1
20260509102005 52 279 12.0 18.0 0.00 0.00 0.00 39 1009.1
20260509101005 52 294 11.0 17.0 0.00 0.00 0.00 41 1008.8
20260509100005 52 267 12.0 16.0 0.00 0.00 0.00 43 1008.8
20260509095505 52 267 13.0 18.0 0.00 0.00 0.00 43 1008.6
20260509095005 52 264 12.0 18.0 0.00 0.00 0.00 45 1008.6
20260509094004 52 278 13.0 18.0 0.00 0.00 0.00 45 1008.4
20260509093505 53 253 14.0 22.0 0.00 0.00 0.00 46 1008.3
20260509092505 53 273 14.0 20.0 0.00 0.00 0.00 46 1008.1
20260509092004 53 276 13.0 20.0 0.00 0.00 0.00 48 1008.0
20260509091504 53 256 14.0 20.0 0.00 0.00 0.00 50 1008.0
20260509090005 53 265 13.0 20.0 0.00 0.00 0.00 52 1007.8
20260509085504 53 263 14.0 20.0 0.00 0.00 0.00 52 1007.7
20260509084504 53 267 14.0 20.0 0.00 0.00 0.00 53 1007.6
20260509083505 53 247 14.0 22.0 0.00 0.00 0.00 52 1007.5
20260509083004 54 262 13.0 20.0 0.00 0.00 0.00 52 1007.5
20260509082505 54 262 13.0 20.0 0.00 0.00 0.00 52 1007.4
20260509082004 54 254 14.0 20.0 0.00 0.00 0.00 52 1007.4
20260509081505 54 262 12.0 20.0 0.00 0.00 0.00 51 1007.4
20260509080005 55 266 16.0 20.0 0.00 0.00 0.00 50 1007.6
20260509075505 55 249 15.0 20.0 0.00 0.00 0.00 50 1007.6
20260509075005 54 261 14.0 17.0 0.00 0.00 0.00 50 1007.6
20260509074504 55 250 12.0 17.0 0.00 0.00 0.00 50 1007.6
20260509073505 55 263 8.0 15.0 0.00 0.00 0.00 49 1007.6
20260509073004 55 262 8.0 12.0 0.00 0.00 0.00 49 1007.6
20260509072504 55 257 10.0 12.0 0.00 0.00 0.00 48 1007.7
20260509072004 56 255 9.0 13.0 0.00 0.00 0.00 48 1007.7
20260509071505 56 263 9.0 14.0 0.00 0.00 0.00 47 1007.6
20260509071004 56 256 9.0 14.0 0.00 0.00 0.00 47 1007.6
20260509070005 57 239 8.0 12.0 0.00 0.00 0.00 47 1007.4
20260509065505 57 266 9.0 12.0 0.00 0.00 0.00 47 1007.4
20260509065004 56 249 9.0 12.0 0.00 0.00 0.00 47 1007.4
20260509064504 56 254 6.0 12.0 0.00 0.00 0.00 49 1007.4
20260509064004 56 241 5.0 8.0 0.00 0.00 0.00 50 1007.4
20260509063504 56 236 5.0 9.0 0.00 0.00 0.00 50 1007.3
20260509063005 56 230 5.0 9.0 0.00 0.00 0.00 50 1007.3
20260509062505 56 213 2.0 5.0 0.00 0.00 0.00 50 1007.2
20260509062005 56 211 3.0 6.0 0.00 0.00 0.00 49 1007.2
20260509060005 57 233 3.0 10.0 0.00 0.00 0.00 46 1007.2
20260509055504 58 231 5.0 12.0 0.00 0.00 0.00 45 1007.3
20260509055004 58 240 6.0 12.0 0.00 0.00 0.00 44 1007.3
20260509054504 59 265 8.0 14.0 0.00 0.00 0.00 42 1007.3
20260509054004 59 275 7.0 14.0 0.00 0.00 0.00 42 1007.3
20260509053505 58 281 10.0 14.0 0.00 0.00 0.00 41 1007.2
20260509053004 59 293 9.0 18.0 0.00 0.00 0.00 42 1007.2
20260509052504 59 300 13.0 18.0 0.00 0.00 0.00 42 1007.1
20260509052005 59 315 10.0 17.0 0.00 0.00 0.00 42 1007.1
20260509051504 59 298 13.0 17.0 0.00 0.00 0.00 42 1006.9
20260509051005 58 281 12.0 17.0 0.00 0.00 0.00 45 1007.0
20260509050005 58 277 11.0 14.0 0.00 0.00 0.00 45 1007.0
20260509045504 58 278 8.0 12.0 0.00 0.00 0.00 46 1007.1
20260509044504 58 263 9.0 17.0 0.00 0.00 0.00 45 1007.2
20260509044004 59 274 11.0 17.0 0.00 0.00 0.00 44 1007.2
20260509043504 59 274 10.0 17.0 0.00 0.00 0.00 45 1007.2
20260509043005 59 259 9.0 18.0 0.00 0.00 0.00 45 1007.2
20260509042504 59 257 13.0 18.0 0.00 0.00 0.00 45 1007.3
20260509042005 59 276 10.0 15.0 0.00 0.00 0.00 45 1007.3
20260509041504 59 271 10.0 16.0 0.00 0.00 0.00 45 1007.3
20260509041005 59 270 11.0 16.0 0.00 0.00 0.00 45 1007.3
20260509035504 59 271 8.0 13.0 0.00 0.00 0.00 43 1007.2
20260509035005 60 274 8.0 13.0 0.00 0.00 0.00 42 1007.1
20260509034504 60 259 9.0 14.0 0.00 0.00 0.00 42 1007.0
20260509034005 60 265 7.0 14.0 0.00 0.00 0.00 41 1007.0
20260509033005 61 288 9.0 17.0 0.00 0.00 0.00 39 1007.1
20260509032005 62 295 10.0 17.0 0.00 0.00 0.00 38 1006.8
20260509031504 62 293 11.0 23.0 0.00 0.00 0.00 36 1006.8
20260509031004 63 288 13.0 23.0 0.00 0.00 0.00 34 1006.8
20260509030004 63 285 13.0 20.0 0.00 0.00 0.00 34 1006.5
20260509025504 63 257 7.0 17.0 0.00 0.00 0.00 33 1006.3
20260509025005 63 277 9.0 16.0 0.00 0.00 0.00 33 1006.2
20260509024504 62 281 11.0 16.0 0.00 0.00 0.00 33 1006.2
20260509024005 62 266 9.0 13.0 0.00 0.00 0.00 36 1006.2
20260509023504 62 270 9.0 13.0 0.00 0.00 0.00 35 1006.1
20260509023004 62 266 8.0 12.0 0.00 0.00 0.00 36 1006.0
20260509022504 62 254 9.0 12.0 0.00 0.00 0.00 36 1005.8
20260509021504 63 261 8.0 12.0 0.00 0.00 0.00 34 1005.7
20260509021004 63 272 6.0 9.0 0.00 0.00 0.00 34 1005.7
20260509020004 64 278 6.0 12.0 0.00 0.00 0.00 33 1005.7
20260509015504 64 303 7.0 12.0 0.00 0.00 0.00 32 1005.7
20260509015004 64 283 7.0 10.0 0.00 0.00 0.00 32 1005.7
20260509014504 64 288 6.0 10.0 0.00 0.00 0.00 32 1005.7
20260509014004 64 289 6.0 12.0 0.00 0.01 0.00 32 1005.7
20260509013504 64 282 6.0 12.0 0.00 0.01 0.00 31 1005.8
20260509013004 64 281 8.0 12.0 0.00 0.01 0.00 31 1005.8
20260509012004 65 294 8.0 12.0 0.00 0.01 0.00 31 1005.8
20260509011505 65 290 7.0 10.0 0.00 0.01 0.00 30 1005.8
20260509011004 65 296 7.0 12.0 0.00 0.01 0.00 31 1005.8
20260509005504 66 282 7.0 12.0 0.00 0.01 0.00 30 1005.9
20260509005004 66 305 7.0 14.0 0.00 0.01 0.00 30 1005.9
20260509004504 66 297 7.0 14.0 0.00 0.01 0.00 30 1006.0
20260509004004 66 283 10.0 13.0 0.00 0.01 0.00 29 1006.1
20260509003004 66 286 7.0 13.0 0.00 0.01 0.00 29 1006.2
20260509002505 66 278 7.0 14.0 0.00 0.01 0.00 30 1006.2
20260509002004 66 306 9.0 16.0 0.00 0.01 0.00 29 1006.3
20260509001504 66 298 11.0 16.0 0.00 0.02 0.00 28 1006.3
20260509001004 66 298 10.0 16.0 0.00 0.02 0.00 29 1006.3
20260509000004 67 283 12.0 18.0 0.00 0.02 0.00 28 1006.4
20260508235005 67 296 10.0 17.0 0.00 0.02 0.00 28 1006.4
20260508234504 67 290 13.0 17.0 0.00 0.02 0.00 28 1006.4
20260508234005 67 311 12.0 20.0 0.00 0.02 0.00 27 1006.4
20260508233005 68 286 15.0 20.0 0.00 0.02 0.00 26 1006.4
20260508232505 68 297 9.0 18.0 0.00 0.02 0.00 26 1006.4
20260508232005 68 291 11.0 20.0 0.00 0.02 0.00 25 1006.4
20260508231505 68 282 14.0 23.0 0.00 0.02 0.00 24 1006.4
20260508231005 68 281 15.0 23.0 0.00 0.02 0.00 23 1006.4
20260508230005 69 281 19.0 25.0 0.00 0.02 0.00 21 1006.5
20260508225505 70 293 15.0 24.0 0.00 0.02 0.00 21 1006.4
20260508225005 70 300 16.0 25.0 0.00 0.02 0.00 22 1006.4
20260508224505 71 290 16.0 25.0 0.00 0.02 0.00 22 1006.4
20260508224005 70 286 14.0 29.0 0.00 0.02 0.00 20 1006.5
20260508223505 71 307 17.0 29.0 0.00 0.02 0.00 20 1006.6
20260508223005 71 288 16.0 25.0 0.00 0.02 0.00 20 1006.6
20260508222505 71 290 13.0 22.0 0.00 0.02 0.00 21 1006.7
20260508222005 71 291 12.0 22.0 0.00 0.02 0.00 21 1006.8
20260508221505 71 297 14.0 21.0 0.00 0.02 0.00 21 1006.7
20260508221006 70 302 16.0 21.0 0.00 0.02 0.00 20 1006.8
20260508215005 70 270 13.0 20.0 0.00 0.02 0.00 23 1006.9
20260508214505 69 269 12.0 18.0 0.00 0.02 0.00 24 1007.1
20260508213505 70 315 13.0 20.0 0.00 0.02 0.00 25 1007.1
20260508213005 69 301 14.0 20.0 0.00 0.02 0.00 25 1007.2
20260508212005 69 280 13.0 18.0 0.00 0.02 0.00 24 1007.4
20260508211505 68 297 11.0 20.0 0.00 0.02 0.00 26 1007.3
20260508211005 68 264 10.0 20.0 0.00 0.02 0.00 24 1007.4
20260508210004 68 276 12.0 18.0 0.00 0.02 0.00 25 1007.6
20260508205505 68 296 14.0 17.0 0.00 0.02 0.00 24 1007.7
20260508205005 68 276 11.0 15.0 0.00 0.02 0.00 31 1007.8
20260508204505 67 256 8.0 16.0 0.00 0.02 0.00 31 1007.9
20260508203505 67 294 12.0 18.0 0.00 0.02 0.00 31 1008.1